sat.trackr.live / text

‹ back to catalog

YAM-6

NORAD 59126 · 2024-043AE

PAYLOAD ACTIVE UNKNOWN

§ Identity

Operator
Country
US
Launch date
2024-03-04
Launch site
AFWTR
Launch vehicle
Mass (kg)
RCS (m²)

External: N2YO · Heavens-Above · Gunter

§ Orbital elements

Epoch: 2026-09-22T15:38:30.014592Z

Period
93.59 min
Inclination
97.5694°
Eccentricity
0.0006837
Mean motion
15.38567818 rev/d
Perigee alt
445.7 km
Apogee alt
455.0 km
Semi-major
6,828.5 km
B*
1.7727e-4
RAAN
49.6940°
Arg perigee
234.7103°
Mean anomaly
125.3503°
Rev number
14,229

§ Raw data

YAM-61 59126U 24043AE  26265.65173628  .00006666  00000+0  17727-3 0  99952 59126  97.5694  49.6940 0006837 234.7103 125.3503 15.38567818142290

JSON: /api/v1/satellites/59126 · /tle

For live sub-satellite position, see the globe view (requires WebGL).

§ Visibility from observer

Set your observer location to see the next 7 days of passes ≥ 10°. The values pass through the URL so the page stays shareable.

No JS? Fill the form by hand. The geolocation button needs JavaScript.

§ Radio — SatNOGS DB

ModeDescriptionDownlinkUplink
FM Mode S - Downlink 2.277 GHz
FM Mode U - Backup Downlink 401.500 MHz
FM Mode U - Downlink 400.875 MHz
FM Mode X - Downlink 8.125 GHz
FM Mode U - Backup Downlink (inactive) 401.017 MHz
FM Mode U - Backup Downlink (inactive) 401.850 MHz
FM Mode U - Backup Downlink (inactive) 401.155 MHz
FM Mode U - Backup Downlink (inactive) 401.225 MHz
FM Mode U - Backup Downlink (inactive) 401.375 MHz
FM Mode U - Backup Downlink (inactive) 401.438 MHz
FM Mode U - Backup Downlink (inactive) 401.015 MHz

11 transmitters · refreshed weekly from db.satnogs.org